| time (UTC) | temp C | wind direction | speed KPH | gust KPH | rain 1hr cm | rain 24hr cm | rain mn cm | humidity % | barometer mb |
| 20260505004204 | 20 | 330 | 19.3 | 33.8 | 0.00 | 0.00 | 0.00 | 33 | 1000.8 |
| 20260505002704 | 21 | 343 | 16.1 | 33.8 | 0.00 | 0.00 | 0.00 | 33 | 1000.1 |
| 20260505001858 | 22 | 334 | 16.1 | 38.6 | 0.00 | 0.00 | 0.00 | 32 | 1000.0 |
| 20260505000400 | 22 | 343 | 17.7 | 30.6 | 0.00 | 0.00 | 0.00 | 33 | 999.8 |
| 20260504234202 | 23 | 355 | 17.7 | 29.0 | 0.00 | 0.00 | 0.00 | 32 | 999.3 |
| 20260504232702 | 24 | 317 | 14.5 | 30.6 | 0.00 | 0.00 | 0.00 | 36 | 999.2 |
| 20260504231853 | 23 | 338 | 9.7 | 22.5 | 0.00 | 0.00 | 0.00 | 41 | 999.1 |
| 20260504225703 | 22 | 265 | 11.3 | 25.7 | 0.00 | 0.00 | 0.00 | 53 | 998.9 |
| 20260504224140 | 21 | 217 | 8.0 | 14.5 | 0.00 | 0.00 | 0.00 | 60 | 998.7 |
| 20260504222638 | 22 | 188 | 11.3 | 17.7 | 0.00 | 0.00 | 0.00 | 56 | 998.5 |
| 20260504221138 | 22 | 194 | 12.9 | 17.7 | 0.00 | 0.00 | 0.00 | 53 | 998.9 |
| 20260504215638 | 23 | 221 | 9.7 | 16.1 | 0.00 | 0.00 | 0.00 | 46 | 998.7 |
| 20260504214833 | 23 | 189 | 3.2 | 8.0 | 0.00 | 0.00 | 0.00 | 51 | 998.8 |
| 20260504211118 | 22 | 248 | 27.4 | 48.3 | 0.00 | 0.00 | 0.00 | 47 | 999.3 |
| 20260504205618 | 24 | 279 | 8.0 | 14.5 | 0.00 | 0.00 | 0.00 | 44 | 998.7 |
| 20260504204109 | 24 | 338 | 20.9 | 48.3 | 0.00 | 0.00 | 0.00 | 46 | 999.0 |
| 20260504202608 | 27 | 240 | 19.3 | 33.8 | 0.00 | 0.00 | 0.00 | 31 | 999.0 |
| 20260504201107 | 27 | 265 | 16.1 | 30.6 | 0.00 | 0.00 | 0.00 | 34 | 999.1 |
| 20260504195607 | 26 | 277 | 16.1 | 32.2 | 0.00 | 0.00 | 0.00 | 31 | 999.4 |
| 20260504194801 | 27 | 252 | 19.3 | 38.6 | 0.00 | 0.00 | 0.00 | 30 | 999.7 |
| 20260504192605 | 26 | 231 | 17.7 | 32.2 | 0.00 | 0.00 | 0.00 | 31 | 999.8 |
| 20260504191800 | 27 | 224 | 20.9 | 35.4 | 0.00 | 0.00 | 0.00 | 33 | 999.8 |
| 20260504185605 | 26 | 223 | 17.7 | 30.6 | 0.00 | 0.00 | 0.00 | 33 | 999.9 |
| 20260504184106 | 26 | 227 | 17.7 | 38.6 | 0.00 | 0.00 | 0.00 | 33 | 1000.0 |
| 20260504182601 | 26 | 245 | 17.7 | 35.4 | 0.00 | 0.00 | 0.00 | 33 | 1000.1 |
| 20260504181753 | 26 | 232 | 19.3 | 32.2 | 0.00 | 0.00 | 0.00 | 34 | 1000.2 |
| 20260504175551 | 26 | 250 | 20.9 | 37.0 | 0.00 | 0.00 | 0.00 | 36 | 1000.1 |
| 20260504174747 | 26 | 204 | 19.3 | 33.8 | 0.00 | 0.00 | 0.00 | 39 | 1000.0 |
| 20260504172543 | 25 | 224 | 17.7 | 27.4 | 0.00 | 0.00 | 0.00 | 38 | 1000.1 |
| 20260504171037 | 25 | 234 | 20.9 | 32.2 | 0.00 | 0.00 | 0.00 | 40 | 1000.2 |
| 20260504140951 | 18 | 201 | 11.3 | 22.5 | 0.00 | 0.00 | 0.00 | 57 | 1002.2 |
| 20260504080900 | 10 | 196 | 6.4 | 9.7 | 0.00 | 0.00 | 0.00 | 66 | 1005.0 |
| 20260504045324 | 13 | 205 | 4.8 | 8.0 | 0.00 | 0.00 | 0.00 | 46 | 1007.0 |
| 20260504043823 | 13 | 220 | 6.4 | 11.3 | 0.00 | 0.00 | 0.00 | 46 | 1007.1 |
| 20260504043017 | 14 | 202 | 4.8 | 9.7 | 0.00 | 0.00 | 0.00 | 46 | 1007.2 |
| 20260504041520 | 14 | 221 | 6.4 | 9.7 | 0.00 | 0.00 | 0.00 | 45 | 1007.3 |
| 20260504035322 | 14 | 210 | 4.8 | 9.7 | 0.00 | 0.00 | 0.00 | 46 | 1007.4 |
| 20260504034514 | 14 | 211 | 6.4 | 11.3 | 0.00 | 0.00 | 0.00 | 46 | 1007.5 |
| 20260504032322 | 15 | 193 | 4.8 | 8.0 | 0.00 | 0.00 | 0.00 | 45 | 1007.6 |
| 20260504030822 | 15 | 219 | 4.8 | 9.7 | 0.00 | 0.00 | 0.00 | 44 | 1007.5 |
| 20260504025322 | 16 | 219 | 6.4 | 11.3 | 0.00 | 0.00 | 0.00 | 42 | 1007.4 |
| 20260504023822 | 16 | 223 | 6.4 | 11.3 | 0.00 | 0.00 | 0.00 | 41 | 1007.2 |
| 20260504022318 | 16 | 206 | 6.4 | 11.3 | 0.00 | 0.00 | 0.00 | 40 | 1007.2 |
| 20260504020817 | 16 | 227 | 6.4 | 9.7 | 0.00 | 0.00 | 0.00 | 41 | 1007.1 |
| 20260504015315 | 17 | 213 | 4.8 | 8.0 | 0.00 | 0.00 | 0.00 | 38 | 1007.1 |
| 20260504014512 | 17 | 225 | 6.4 | 9.7 | 0.00 | 0.00 | 0.00 | 38 | 1007.0 |
| 20260504012314 | 18 | 212 | 4.8 | 9.7 | 0.00 | 0.00 | 0.00 | 37 | 1006.9 |
| 20260504011504 | 20 | 262 | 3.2 | 9.7 | 0.00 | 0.00 | 0.00 | 34 | 1006.8 |